Regional Weather Roundup
Issued by NWS Upton, NY

Current Version | Previous Version | Graphics & Text | Print | Product List | Glossary Off
Versions: 1 2 3 4 5 6 7 8 9 10 11 12 13 14 15 16 17 18 19 20 21 22 23 24 25 26 27 28 29 30 31 32 33 34 35 36 37 38 39 40 41 42 43 44 45 46 47 48 49 50

000
ASUS41 KOKX 260408
RWROKX

REGIONAL WEATHER ROUNDUP
NATIONAL WEATHER SERVICE NEW YORK NY
1200 AM EDT SUN APR 26 2015

NOTE: "FAIR" INDICATES FEW OR NO CLOUDS BELOW 12,000 FEET WITH NO
SIGNIFICANT WEATHER AND/OR OBSTRUCTIONS TO VISIBILITY.

NYZ071-072-176-178-NJZ106-104-260500-
NEW YORK CITY METRO AREA


CITY           SKY/WX    TMP DP  RH WIND       PRES   REMARKS
CENTRAL PARK   MOCLDY    52  27  38 NE10G17   29.72S
LAGUARDIA APRT MOCLDY    49  35  58 E5        29.70S
KENNEDY INTL   MOCLDY    47  36  65 NE7       29.70F
NEWARK/LIBERTY MOCLDY    50  28  42 N13       29.70R
BRNX BOT. GARD   N/A     48  30  49 NE1       29.72S
TETERBORO      MOCLDY    51  26  37 VRB7      29.70R
$$

NYZ177-179-078>081-260500-
LONG ISLAND NEW YORK

CITY           SKY/WX    TMP DP  RH WIND       PRES   REMARKS
FARMINGDALE    MOCLDY    43  36  76 NE3       29.70F
ISLIP          MOCLDY    40  34  79 CALM      29.69F
SHIRLEY        PTCLDY    38  32  79 CALM      29.71F
WESTHAMPTON    PTCLDY    30  25  81 CALM      29.72S
MONTAUK POINT    N/A     46  35  65 CALM      29.71S
$$

NYZ052-065-067-260500-
HUDSON VALLEY

CITY           SKY/WX    TMP DP  RH WIND       PRES   REMARKS
WHITE PLAINS   PTCLDY    43  27  53 N5        29.69F
NEWBURGH       CLEAR     43  28  56 VRB5      29.72F
MONTGOMERY     PTCLDY    39  31  72 CALM      29.71F
POUGHKEEPSIE   CLEAR     39  29  67 CALM      29.71F
ALBANY         MOCLDY    45  28  51 NW5       29.76S
$$

NJZ001-105-106-008-010-013-015-019>022-104-260500-
NEW JERSEY

CITY           SKY/WX    TMP DP  RH WIND       PRES   REMARKS
NEWARK/LIBERTY MOCLDY    50  28  42 N13       29.70R
TETERBORO      MOCLDY    51  26  37 VRB7      29.70R
CALDWELL       MOCLDY    49  25  39 N5        29.71S
MORRISTOWN     MOCLDY    50  25  37 N5        29.71R
SOMERVILLE     MOCLDY    41  32  70 N5        29.69R
SUSSEX         PTCLDY    38  28  67 CALM      29.72F
ANDOVER          N/A     43  29  57 CALM      29.71S
TRENTON        MOCLDY    48  26  42 W5        29.69S
MILLVILLE      CLOUDY    47  36  65 W9        29.72S
ATLANTIC CITY  CLOUDY    47  33  58 MISG      29.72S
WRIGHTSTOWN    CLOUDY    45  29  52 SW6       29.68S
TOMS RIVER     CLOUDY    45  30  57 CALM      29.69S
BELMAR         MOCLDY    46  25  42 SW7       29.70R
$$

PAZ047>061-062-071-260500-
EASTERN PENNSYLVANIA

CITY           SKY/WX    TMP DP  RH WIND       PRES   REMARKS
PHILADELPHIA   CLOUDY    50  36  58 SW9       29.72S
ALLENTOWN      PTCLDY    47  27  45 N5        29.71R
SCRANTON       PTCLDY    43  25  49 CALM      29.72S
$$

CTZ002-004>006-009-010-012-RIZ004-006-007-MAZ004-011-015-260500-
SOUTHERN NEW ENGLAND
 IN CT

CITY           SKY/WX    TMP DP  RH WIND       PRES   REMARKS
BRADLEY INTL   MOCLDY    47  27  45 N7        29.71S
HARTFORD       CLEAR     47  28  47 N8        29.71S
DANBURY        CLEAR     37  28  70 CALM      29.71F
WTRBRY/OXFORD  CLEAR     41  27  56 N8        29.71S
BRIDGEPORT     PTCLDY    45  37  73 SW3       29.70F
MERIDEN        CLEAR     44  30  57 N5        29.70F
NEW HAVEN      CLEAR     39  34  82 CALM      29.70F
CHESTER        FAIR      46  28  49 N3        29.70F
GROTON         CLEAR     41  34  76 N5        29.70S
WILLIMANTIC    MOCLDY    42  32  67 CALM      29.72S

 IN RI

CITY           SKY/WX    TMP DP  RH WIND       PRES   REMARKS
PROVIDENCE     MOCLDY    47  31  53 NE7       29.72S
BLOCK ISLAND   MOCLDY    43  36  75 NW6       29.69F
WESTERLY       PTCLDY    43  37  79 CALM      29.71S

 IN MA

CITY           SKY/WX    TMP DP  RH WIND       PRES   REMARKS
BOSTON         PTCLDY    44  28  53 N7        29.73S
WORCESTER      CLOUDY    43  27  53 N6        29.72R
WESTFIELD      PTCLDY    44  28  53 N6        29.72S
PROVINCETOWN   CLEAR    N/A N/A N/A NW8       29.71F
NANTUCKET      CLOUDY    42  35  76 W5        29.71S
$$

ANZ330-335-338-340-345-350-353-355-260500-
COASTAL MARINE OBSERVATIONS


STATION/POSITION TIME  SKY/WX   TEMP    WIND        PRES    VSBY  WAVE
                                AIR SEA DIR/SP/G                  HT/PER
                 (UTC)          (F)     (DEG/KT/KT) (MB)    (MI)  (FT/S)
NY HARB ENTRANCE 0350            48 45  230/  8/ 10 1004.9          2/ 5
4S FIRE IS       0303               44                N/A           3/ 4
20S FIRE ISLAND  0350            45 43  230/ 10/ 12 1005.4          2/ 4
23SW MTP         NOT AVBL
HUDSON CANYON    NOT AVBL
EXECUTION ROCKS  NOT AVBL
WESTERN LI SOUND NOT AVBL
CENTRAL LI SOUND NOT AVBL
EASTERN LI SOUND 0300            44     290/  8/  8   N/A
ROBBINS REEF     0300            52     360/  6/  8 1004.1
$$


>>>>>>>>>>>>>>>>>>>>>>>>>>>> KEY <<<<<<<<<<<<<<<<<<<<<<<<<<<
>                                                          <
>     SKY/WX - SKY CONDITION/PRESENT WEATHER               <
>     TMP    - TEMPERATURE IN FAHRENHEIT                   <
>     DP     - DEWPOINT IN FAHRENHEIT                      <
>     RH     - RELATIVE HUMIDITY IN PERCENT                <
>     WIND   - DIRECTION AND SPEED IN MPH                  <
>     PRES   - MEAN SEA LEVEL PRESSURE IN INCHES OF HG     <
>     WCI    - WIND CHILL INDEX                            <
>     VSB    - VISIBILITY IN MILES                         <
>     HX     - HEAT INDEX                                  <
>     TC     - TEMPERATURE IN CELSIUS                      <
>     VRB    - VARIABLE WIND DIRECTION                     <
>                                                          <
>>>>>>>>>>>>>>>>>>>>>>>>>>>> KEY <<<<<<<<<<<<<<<<<<<<<<<<<<<





USA.gov is the U.S. government's official web portal to all federal, state and local government web resources and services.